This is the latest recevied weather packets stored in our database for station/object WP3OF-1. If no packets are shown the sender has not sent any weather packets the latest 10 day(s).
| Time | Temp. | Humidity | Pressure | Rain* | Wind** | Luminosity | Snow |
|---|---|---|---|---|---|---|---|
| 1777654177 | 28.33° C | 74% | 1015.7 hPa | 0 mm | - | - | - |
| 1777653874 | 27.78° C | 76% | 1015.7 hPa | 0 mm | - | - | - |
| 1777653571 | 28.33° C | 76% | 1015.8 hPa | 0 mm | - | - | - |
| 1777653267 | 28.33° C | 75% | 1015.8 hPa | 0 mm | - | - | - |
| 1777652964 | 28.33° C | 75% | 1015.8 hPa | 0 mm | - | - | - |
| 1777652661 | 27.78° C | 76% | 1015.9 hPa | 0 mm | - | - | - |
| 1777652357 | 27.78° C | 74% | 1016.1 hPa | 0 mm | - | - | - |
| 1777652055 | 27.78° C | 76% | 1015.8 hPa | 0 mm | - | - | - |
| 1777651751 | 28.33° C | 75% | 1016.3 hPa | 0 mm | - | - | - |
| 1777651447 | 28.33° C | 74% | 1016.4 hPa | 0 mm | - | - | - |
| 1777651145 | 28.33° C | 74% | 1016.1 hPa | 0 mm | - | - | - |
| 1777650841 | 28.33° C | 76% | 1015.9 hPa | 0 mm | - | - | - |
| 1777650538 | 28.33° C | 76% | 1016.2 hPa | 0 mm | - | - | - |
| 1777650236 | 28.33° C | 76% | 1016.2 hPa | 0 mm | - | - | - |
| 1777649933 | 28.33° C | 77% | 1016.2 hPa | 0 mm | - | - | - |
| 1777649630 | 28.33° C | 78% | 1015.9 hPa | 0 mm | - | - | - |
| 1777649326 | 27.78° C | 79% | 1016.2 hPa | 0 mm | - | - | - |
| 1777649024 | 27.78° C | 76% | 1016.1 hPa | 0 mm | - | - | - |
| 1777648721 | 28.33° C | 78% | 1016.3 hPa | 0 mm | - | - | - |
| 1777648417 | 27.78° C | 78% | 1016.2 hPa | 0 mm | - | - | - |
| 1777648113 | 27.78° C | 78% | 1016.3 hPa | 0 mm | - | - | - |
| 1777647810 | 27.78° C | 77% | 1016.1 hPa | 0 mm | - | - | - |
| 1777647506 | 27.78° C | 79% | 1016.2 hPa | 0 mm | - | - | - |
| 1777647203 | 27.78° C | 79% | 1016.1 hPa | 0 mm | - | - | - |
| 1777646900 | 27.78° C | 78% | 1016.1 hPa | 0 mm | - | - | - |
* Rain latest hour (hover to see other rain measurements)
** Current wind speed in m/s (hover to see current wind gust speed)